Location: Fort Wayne
(41.1310°N, 85.1290°W)
Time: 00:37:43
(UTC-04:00)

IDEFIX/ARIANE 42P - Visible Passes

Search period start: 29 July 2014 00:00
Search period end: 08 August 2014 00:00
Orbit: 785 x 805 km, 98.3° (Epoch: 27 July)

Date Brightness Start Highest point End Pass type
(mag) Time Alt. Az. Time Alt. Az. Time Alt. Az.
29 Jul 3.6 21:54:21 10° S 21:59:20 45° W 22:04:19 10° NNW visible
30 Jul 2.7 21:25:57 10° SSE 21:31:10 83° WSW 21:36:23 10° NNW visible
31 Jul 5.0 22:39:35 10° SW 22:43:03 18° W 22:46:31 10° NW visible
01 Aug 4.2 22:10:05 10° SSW 22:14:42 32° W 22:19:21 10° NNW visible
02 Aug 3.2 21:41:21 10° S 21:46:28 59° W 21:51:37 10° NNW visible
03 Aug 5.3 22:56:25 10° WSW 22:58:31 12° W 23:00:38 10° WNW visible
04 Aug 4.7 22:26:02 10° SW 22:30:07 23° W 22:34:12 10° NW visible
05 Aug 3.8 21:56:55 10° S 22:01:49 42° W 22:06:44 10° NNW visible
06 Aug 2.8 21:28:27 10° S 21:33:38 77° WSW 21:38:50 10° NNW visible
07 Aug 5.1 22:42:20 10° SW 22:45:33 17° W 22:48:47 10° NW visible
